Project,Study,Ord_Occ,Event_Num,Cast_ID,Date_Time_UTC,Date_Time_PST,Lat_Dec,Lon_Dec,Sta_ID,Line,Sta,Depth,Pressure,PrQ,Temp1,Temp1Q,Temp2,Temp2Q,TempAve,Salt1,Salt1Q,Salt1_Corr,Salt2,Salt2Q,Salt2_Corr,SaltAve_Corr,Ox1,Ox1Q,Ox1_CruiseCorr,Ox1_StaCorr,Ox2,Ox2Q,Ox2_CruiseCorr,Ox2_StaCorr,OxAve_StaCorr,Ox1uM,Ox1uM_CruiseCorr,Ox1uM_StaCorr,Ox2uM,Ox2uM_CruiseCorr,Ox2uM_StaCorr,OxAveuM_StaCorr,FluorV,FluorQ,EstChl_CruiseCorr,EstChl_StaCorr,ISUSV,ISUSQ,EstNO3_CruiseCorr,EstNO3_StaCorr,SigThetaTS1,SigThetaTS1Q,SigThetaTS2,SigThetaTS2Q,BAT,XMiss,TransQ,pH,pHQ,SPAR,SPARQ,PAR,PARQ,PoT1,PoT2,DynHt,SVA,OxSat1,OxSat2,BTL_Depth,BTL_Temp,SaltB,OxB,OxBuM,Chl-a,Phaeo,NO3,NO2,NH4,PO4,SIL
CalCOFI,2007SR,021,22,2007_021d,17-Jul-2020 11:50:24,17-Jul-2020 03:50:24,31.41738,-121.98883,090.0 090.0,090.0,090.0,1.000,1.007,,17.8794,,17.8792,,17.8793,33.4027,,33.4029,33.4242,,33.4258,33.4144,5.2618,,5.4804,5.4483,4.0459,,5.7176,4.4477,4.9480,229.466,239.0515,216.4319,176.437,395.6963,175.4373,195.9346,0.0405,,0.0516,0.0951,,,,,24.0785,,24.0950,,0.7054,83.8366,,8.141,,1.9043E+00,,1.4950E-01,,17.8792,17.8791,0.0197,,96.810,74.447,,,,,,,,,,,,
CalCOFI,2007SR,021,22,2007_021d,17-Jul-2020 11:50:55,17-Jul-2020 03:50:55,31.41738,-121.98884,090.0 090.0,090.0,090.0,2.000,2.014,,17.8774,,17.8768,,17.8771,33.4386,,33.4388,33.4394,,33.4410,33.4399,5.3188,,5.5399,5.5075,4.0542,,5.7374,4.4664,4.9870,231.946,241.6403,218.6546,176.800,401.7620,176.1645,197.4096,0.0392,,0.0364,0.0861,,,,,24.1064,,24.1072,,0.6789,84.3895,,8.141,,1.9043E+00,,1.6616E-02,,17.8771,17.8765,0.0376,,97.875,74.604,,,,,,,,,,,,
CalCOFI,2007SR,021,22,2007_021d,17-Jul-2020 11:50:56,17-Jul-2020 03:50:56,31.41738,-121.98882,090.0 090.0,090.0,090.0,3.000,3.021,,17.8690,,17.8684,,17.8687,33.4392,,33.4394,33.4400,,33.4416,33.4405,5.3227,,5.5440,5.5116,4.0535,,5.7357,4.4648,4.9882,232.114,241.8157,218.8051,176.767,402.1729,176.0984,197.4518,0.0396,,0.0411,0.0889,,,,,24.1090,,24.1098,,0.6767,84.4371,,8.141,,1.9043E+00,,8.6496E-03,,17.8685,17.8679,0.0414,,97.931,74.579,3,17.876,33.4255,5.607,244.75,0.115,0.026,,,,,1.34
CalCOFI,2007SR,021,22,2007_021d,17-Jul-2020 11:51:00,17-Jul-2020 03:51:00,31.41738,-121.98884,090.0 090.0,090.0,090.0,4.000,4.028,,17.8659,,17.8652,,17.8656,33.4392,,33.4394,33.4398,,33.4414,33.4404,5.3275,,5.5490,5.5166,4.0584,,5.7474,4.4759,4.9963,232.324,242.0349,218.9933,176.983,402.6865,176.5311,197.7622,0.0413,,0.0610,0.1006,,,,,24.1098,,24.1104,,0.6773,84.4226,,8.141,,1.9043E+00,,-1.704E-03,,17.8652,17.8645,0.0452,,98.013,74.665,,,,,,,,,,,,
CalCOFI,2007SR,021,22,2007_021d,17-Jul-2020 11:51:02,17-Jul-2020 03:51:02,31.41738,-121.98884,090.0 090.0,090.0,090.0,5.000,5.035,,17.8555,,17.8567,,17.8561,33.4399,,33.4401,33.4403,,33.4419,33.4410,5.3331,,5.5549,5.5224,4.0590,,5.7489,4.4772,4.9998,232.570,242.2917,219.2138,177.005,403.2882,176.5751,197.8945,0.0406,,0.0528,0.0958,,,,,24.1129,,24.1129,,0.6778,84.4131,,8.141,,1.9043E+00,,1.0000E-12,,17.8547,17.8559,0.0491,,98.099,74.663,,,,,,,,,,,,
CalCOFI,2007SR,021,22,2007_021d,17-Jul-2020 11:51:03,17-Jul-2020 03:51:03,31.41738,-121.98884,090.0 090.0,090.0,090.0,6.000,6.042,,17.8300,,17.8342,,17.8321,33.4412,,33.4414,33.4413,,33.4429,33.4422,5.3349,,5.5567,5.5243,4.0639,,5.7605,4.4883,5.0063,232.647,242.3721,219.2828,177.218,403.4765,177.0018,198.1423,0.0404,,0.0505,0.0944,,,,,24.1201,,24.1192,,0.6784,84.4007,,8.141,,1.9043E+00,,1.0000E-12,,17.8290,17.8331,0.0529,,98.085,74.722,,,,,,,,,,,,
CalCOFI,2007SR,021,22,2007_021d,17-Jul-2020 11:51:05,17-Jul-2020 03:51:05,31.41738,-121.98882,090.0 090.0,090.0,090.0,7.000,7.049,,17.8015,,17.8027,,17.8021,33.4429,,33.4431,33.4435,,33.4451,33.4441,5.3402,,5.5623,5.5298,4.0684,,5.7713,4.4984,5.0141,232.873,242.6080,219.4854,177.413,404.0293,177.3925,198.4390,0.0400,,0.0458,0.0917,,,,,24.1284,,24.1286,,0.6790,84.3868,,8.141,,1.9043E+00,,1.0000E-12,,17.8003,17.8015,0.0567,,98.129,74.761,,,,,,,,,,,,
CalCOFI,2007SR,021,22,2007_021d,17-Jul-2020 11:51:07,17-Jul-2020 03:51:07,31.41738,-121.98884,090.0 090.0,090.0,090.0,8.000,8.056,,17.7964,,17.7966,,17.7965,33.4433,,33.4435,33.4439,,33.4455,33.4445,5.3397,,5.5618,5.5293,4.0720,,5.7799,4.5065,5.0179,232.852,242.5861,219.4665,177.571,403.9779,177.7090,198.5878,0.0399,,0.0446,0.0910,,,,,24.1300,,24.1304,,0.6789,84.3901,,8.141,,1.9043E+00,,1.0000E-12,,17.7951,17.7952,0.0605,,98.111,74.819,,,,,,,,,,,,
CalCOFI,2007SR,021,22,2007_021d,17-Jul-2020 11:51:10,17-Jul-2020 03:51:10,31.41738,-121.98884,090.0 090.0,090.0,090.0,9.000,9.063,,17.7933,,17.7934,,17.7934,33.4436,,33.4438,33.4444,,33.4460,33.4449,5.3437,,5.5659,5.5334,4.0732,,5.7828,4.5092,5.0213,233.025,242.7667,219.6216,177.623,404.4011,177.8131,198.7174,0.0404,,0.0505,0.0944,,,,,24.1310,,24.1316,,0.6794,84.3785,,8.142,,1.9043E+00,,1.0000E-12,,17.7918,17.7919,0.0643,,98.178,74.837,,,,,,,,,,,,
CalCOFI,2007SR,021,22,2007_021d,17-Jul-2020 11:51:12,17-Jul-2020 03:51:12,31.41738,-121.98884,090.0 090.0,090.0,090.0,10.000,10.070,,17.7884,,17.7890,,17.7887,33.4433,,33.4435,33.4439,,33.4455,33.4445,5.3446,,5.5669,5.5344,4.0739,,5.7844,4.5108,5.0226,233.068,242.8116,219.6601,177.653,404.5062,177.8732,198.7667,0.0403,,0.0493,0.0937,,,,,24.1319,,24.1323,,0.6800,84.3666,,8.141,,1.9043E+00,,1.0000E-12,,17.7867,17.7873,0.0681,,98.187,74.843,,,,,,,,,,,,
CalCOFI,2007SR,021,22,2007_021d,17-Jul-2020 11:51:14,17-Jul-2020 03:51:14,31.41738,-121.98884,090.0 090.0,090.0,090.0,11.000,11.077,,17.7823,,17.7824,,17.7824,33.4423,,33.4425,33.4431,,33.4447,33.4436,5.3488,,5.5713,5.5387,4.0750,,5.7870,4.5133,5.0260,233.247,242.9984,219.8206,177.699,404.9441,177.9654,198.8930,0.0407,,0.0540,0.0965,,,,,24.1327,,24.1333,,0.6807,84.3515,,8.141,,1.9043E+00,,1.0000E-12,,17.7805,17.7805,0.0719,,98.251,74.853,11,17.773,33.4317,5.567,243.02,0.124,0.029,,,,,1.3
CalCOFI,2007SR,021,22,2007_021d,17-Jul-2020 11:51:15,17-Jul-2020 03:51:15,31.41738,-121.98884,090.0 090.0,090.0,090.0,12.000,12.084,,17.7774,,17.7775,,17.7775,33.4418,,33.4420,33.4424,,33.4440,33.4430,5.3417,,5.5638,5.5314,4.0759,,5.7892,4.5153,5.0234,232.938,242.6759,219.5436,177.740,404.1883,178.0475,198.7956,0.0410,,0.0575,0.0985,,,,,24.1336,,24.1340,,0.6793,84.3812,,8.141,,1.9043E+00,,1.0000E-12,,17.7754,17.7754,0.0757,,98.111,74.862,,,,,,,,,,,,
CalCOFI,2007SR,021,22,2007_021d,17-Jul-2020 11:51:17,17-Jul-2020 03:51:17,31.41738,-121.98884,090.0 090.0,090.0,090.0,13.000,13.091,,17.7767,,17.7766,,17.7767,33.4427,,33.4429,33.4434,,33.4450,33.4440,5.3453,,5.5676,5.5351,4.0765,,5.7906,4.5167,5.0259,233.096,242.8408,219.6852,177.764,404.5747,178.0956,198.8904,0.0408,,0.0552,0.0972,,,,,24.1345,,24.1351,,0.6795,84.3770,,8.141,,1.9043E+00,,1.0000E-12,,17.7745,17.7744,0.0795,,98.177,74.872,,,,,,,,,,,,
CalCOFI,2007SR,021,22,2007_021d,17-Jul-2020 11:51:20,17-Jul-2020 03:51:20,31.41738,-121.98884,090.0 090.0,090.0,090.0,14.000,14.098,,17.7753,,17.7761,,17.7757,33.4436,,33.4438,33.4445,,33.4461,33.4450,5.3526,,5.5752,5.5427,4.0789,,5.7964,4.5221,5.0324,233.412,243.1707,219.9684,177.868,405.3476,178.3039,199.1362,0.0402,,0.0481,0.0930,,,,,24.1356,,24.1360,,0.6806,84.3544,,8.141,,1.9043E+00,,1.0000E-12,,17.7729,17.7737,0.0833,,98.308,74.916,,,,,,,,,,,,
CalCOFI,2007SR,021,22,2007_021d,17-Jul-2020 11:51:22,17-Jul-2020 03:51:22,31.41738,-121.98884,090.0 090.0,090.0,090.0,15.000,15.105,,17.7641,,17.7645,,17.7643,33.4418,,33.4420,33.4427,,33.4443,33.4432,5.3489,,5.5714,5.5388,4.0825,,5.8050,4.5302,5.0345,233.252,243.0037,219.8250,178.027,404.9563,178.6224,199.2237,0.0395,,0.0399,0.0882,,,,,24.1369,,24.1375,,0.6843,84.2750,,8.141,,1.9043E+00,,1.0000E-12,,17.7615,17.7620,0.0871,,98.219,74.965,,,,,,,,,,,,
CalCOFI,2007SR,021,22,2007_021d,17-Jul-2020 11:51:24,17-Jul-2020 03:51:24,31.41738,-121.98884,090.0 090.0,090.0,090.0,16.000,16.112,,17.7477,,17.7476,,17.7477,33.4382,,33.4384,33.4389,,33.4405,33.4395,5.3548,,5.5775,5.5450,4.0841,,5.8088,4.5338,5.0394,233.507,243.2699,220.0536,178.095,405.5800,178.7587,199.4062,0.0405,,0.0516,0.0951,,,,,24.1382,,24.1387,,0.6833,84.2965,,8.141,,1.9043E+00,,1.0000E-12,,17.7450,17.7449,0.0909,,98.293,74.968,,,,,,,,,,,,
CalCOFI,2007SR,021,22,2007_021d,17-Jul-2020 11:51:26,17-Jul-2020 03:51:26,31.41738,-121.98884,090.0 090.0,090.0,090.0,17.000,17.119,,17.7349,,17.7350,,17.7350,33.4362,,33.4364,33.4369,,33.4385,33.4375,5.3528,,5.5754,5.5429,4.0857,,5.8126,4.5374,5.0402,233.421,243.1801,219.9765,178.164,405.3696,178.8969,199.4367,0.0408,,0.0552,0.0972,,,,,24.1398,,24.1403,,0.6798,84.3707,,8.141,,1.9043E+00,,1.0000E-12,,17.7321,17.7321,0.0947,,98.232,74.979,,,,,,,,,,,,
CalCOFI,2007SR,021,22,2007_021d,17-Jul-2020 11:51:28,17-Jul-2020 03:51:28,31.41738,-121.98884,090.0 090.0,090.0,090.0,18.000,18.126,,17.7280,,17.7282,,17.7281,33.4352,,33.4354,33.4360,,33.4376,33.4365,5.3566,,5.5794,5.5469,4.0867,,5.8150,4.5397,5.0433,233.586,243.3523,220.1244,178.212,405.7732,178.9930,199.5587,0.0408,,0.0552,0.0972,,,,,24.1407,,24.1412,,0.6793,84.3806,,8.141,,1.9043E+00,,1.0000E-12,,17.7250,17.7251,0.0985,,98.288,74.988,,,,,,,,,,,,
CalCOFI,2007SR,021,22,2007_021d,17-Jul-2020 11:51:30,17-Jul-2020 03:51:30,31.41738,-121.98884,090.0 090.0,090.0,090.0,19.000,19.133,,17.7201,,17.7206,,17.7204,33.4342,,33.4344,33.4350,,33.4366,33.4355,5.3563,,5.5791,5.5465,4.0873,,5.8164,4.5410,5.0438,233.574,243.3398,220.1136,178.237,405.7438,179.0431,199.5784,0.0406,,0.0528,0.0958,,,,,24.1419,,24.1424,,0.6810,84.3457,,8.141,,1.9043E+00,,1.0000E-12,,17.7169,17.7174,0.1023,,98.268,74.988,,,,,,,,,,,,
CalCOFI,2007SR,021,22,2007_021d,17-Jul-2020 11:51:32,17-Jul-2020 03:51:32,31.41738,-121.98884,090.0 090.0,090.0,090.0,20.000,20.140,,17.7060,,17.7072,,17.7066,33.4330,,33.4332,33.4339,,33.4355,33.4344,5.3619,,5.5849,5.5524,4.0896,,5.8219,4.5462,5.0493,233.817,243.5935,220.3314,178.334,406.3382,179.2374,199.7844,0.0408,,0.0552,0.0972,,,,,24.1444,,24.1448,,0.6782,84.4036,,8.141,,1.9043E+00,,1.0000E-12,,17.7026,17.7038,0.1061,,98.343,75.009,,,,,,,,,,,,
CalCOFI,2007SR,021,22,2007_021d,17-Jul-2020 11:51:34,17-Jul-2020 03:51:34,31.41738,-121.98884,090.0 090.0,090.0,090.0,21.000,21.147,,17.6971,,17.6975,,17.6973,33.4332,,33.4334,33.4343,,33.4359,33.4347,5.3579,,5.5808,5.5482,4.0908,,5.8248,4.5489,5.0486,233.643,243.4118,220.1755,178.388,405.9126,179.3456,199.7606,0.0406,,0.0528,0.0958,,,,,24.1468,,24.1475,,0.6769,84.4315,,8.141,,1.9043E+00,,1.0000E-12,,17.6935,17.6940,0.1099,,98.254,75.018,,,,,,,,,,,,
CalCOFI,2007SR,021,22,2007_021d,17-Jul-2020 11:51:36,17-Jul-2020 03:51:36,31.41738,-121.98884,090.0 090.0,090.0,090.0,22.000,22.154,,17.6853,,17.6857,,17.6855,33.4333,,33.4335,33.4340,,33.4356,33.4346,5.3628,,5.5859,5.5533,4.0923,,5.8283,4.5523,5.0528,233.854,243.6321,220.3646,178.452,406.4287,179.4738,199.9192,0.0408,,0.0552,0.0972,,,,,24.1497,,24.1502,,0.6766,84.4380,,8.141,,1.9043E+00,,1.0000E-12,,17.6816,17.6820,0.1137,,98.320,75.029,,,,,,,,,,,,
CalCOFI,2007SR,021,22,2007_021d,17-Jul-2020 11:51:38,17-Jul-2020 03:51:38,31.41738,-121.98884,090.0 090.0,090.0,090.0,23.000,23.162,,17.6764,,17.6779,,17.6772,33.4329,,33.4331,33.4335,,33.4351,33.4341,5.3659,,5.5891,5.5565,4.0935,,5.8312,4.5550,5.0558,233.990,243.7741,220.4865,178.502,406.7613,179.5740,200.0303,0.0429,,0.0798,0.1114,,,,,24.1516,,24.1517,,0.6773,84.4236,,8.141,,1.9043E+00,,1.0000E-12,,17.6726,17.6741,0.1175,,98.361,75.039,,,,,,,,,,,,
CalCOFI,2007SR,021,22,2007_021d,17-Jul-2020 11:51:39,17-Jul-2020 03:51:39,31.41738,-121.98884,090.0 090.0,090.0,090.0,24.000,24.169,,17.6582,,17.6580,,17.6581,33.4320,,33.4322,33.4327,,33.4343,33.4333,5.3644,,5.5876,5.5550,4.0956,,5.8362,4.5597,5.0574,233.924,243.7052,220.4273,178.596,406.5999,179.7623,200.0948,0.0422,,0.0716,0.1067,,,,,24.1554,,24.1559,,0.6765,84.4406,,8.141,,1.9043E+00,,1.0000E-12,,17.6542,17.6540,0.1213,,98.299,75.049,,,,,,,,,,,,
CalCOFI,2007SR,021,22,2007_021d,17-Jul-2020 11:51:42,17-Jul-2020 03:51:42,31.41738,-121.98884,090.0 090.0,090.0,090.0,25.000,25.176,,17.6476,,17.6490,,17.6483,33.4321,,33.4323,33.4336,,33.4352,33.4338,5.3681,,5.5914,5.5588,4.0969,,5.8393,4.5627,5.0608,234.083,243.8711,220.5698,178.649,406.9888,179.8684,200.2191,0.0428,,0.0786,0.1107,,,,,24.1580,,24.1588,,0.6765,84.4403,,8.141,,1.9043E+00,,1.0000E-12,,17.6434,17.6447,0.1251,,98.346,75.059,25,17.597,33.4163,5.536,241.68,0.134,0.034,,,,,1.27
CalCOFI,2007SR,021,22,2007_021d,17-Jul-2020 11:51:44,17-Jul-2020 03:51:44,31.41738,-121.98884,090.0 090.0,090.0,090.0,26.000,26.183,,17.6218,,17.6234,,17.6226,33.4302,,33.4304,33.4305,,33.4321,33.4313,5.3702,,5.5936,5.5610,4.0995,,5.8455,4.5685,5.0648,234.173,243.9651,220.6505,178.765,407.2089,180.1008,200.3757,0.0419,,0.0681,0.1047,,,,,24.1628,,24.1626,,0.6765,84.4401,,8.142,,1.9043E+00,,1.0000E-12,,17.6175,17.6191,0.1289,,98.335,75.070,,,,,,,,,,,,
CalCOFI,2007SR,021,22,2007_021d,17-Jul-2020 11:51:46,17-Jul-2020 03:51:46,31.41738,-121.98884,090.0 090.0,090.0,090.0,27.000,27.190,,17.6072,,17.6079,,17.6076,33.4289,,33.4291,33.4297,,33.4313,33.4302,5.3779,,5.6017,5.5690,4.1013,,5.8498,4.5726,5.0708,234.512,244.3190,220.9543,178.843,408.0381,180.2570,200.6057,0.0424,,0.0740,0.1080,,,,,24.1654,,24.1658,,0.6769,84.4330,,8.142,,1.9043E+00,,1.0000E-12,,17.6027,17.6034,0.1326,,98.449,75.081,,,,,,,,,,,,
CalCOFI,2007SR,021,22,2007_021d,17-Jul-2020 11:51:48,17-Jul-2020 03:51:48,31.41738,-121.98884,090.0 090.0,090.0,090.0,28.000,28.197,,17.5928,,17.5932,,17.5930,33.4273,,33.4275,33.4281,,33.4297,33.4286,5.3832,,5.6072,5.5745,4.1031,,5.8541,4.5766,5.0756,234.740,244.5570,221.1586,178.920,408.5957,180.4113,200.7850,0.0431,,0.0822,0.1127,,,,,24.1676,,24.1681,,0.6763,84.4457,,8.142,,1.9043E+00,,1.0000E-12,,17.5881,17.5885,0.1364,,98.517,75.091,,,,,,,,,,,,
CalCOFI,2007SR,021,22,2007_021d,17-Jul-2020 11:51:50,17-Jul-2020 03:51:50,31.41738,-121.98884,090.0 090.0,090.0,090.0,29.000,29.204,,17.5767,,17.5764,,17.5766,33.4261,,33.4263,33.4272,,33.4288,33.4276,5.3789,,5.6027,5.5701,4.1046,,5.8577,4.5800,5.0751,234.554,244.3628,220.9919,178.986,408.1408,180.5435,200.7677,0.0434,,0.0857,0.1147,,,,,24.1706,,24.1716,,0.6761,84.4490,,8.142,,1.9043E+00,,1.0000E-12,,17.5718,17.5716,0.1402,,98.408,75.095,,,,,,,,,,,,
CalCOFI,2007SR,021,22,2007_021d,17-Jul-2020 11:51:52,17-Jul-2020 03:51:52,31.41738,-121.98884,090.0 090.0,090.0,090.0,30.000,30.211,,17.5659,,17.5653,,17.5656,33.4254,,33.4256,33.4266,,33.4282,33.4269,5.3821,,5.6061,5.5734,4.1064,,5.8620,4.5841,5.0788,234.690,244.5048,221.1138,179.063,408.4734,180.6978,200.9058,0.0439,,0.0916,0.1180,,,,,24.1727,,24.1738,,0.6772,84.4252,,8.142,,1.9043E+00,,1.0000E-12,,17.5609,17.5602,0.1440,,98.445,75.111,,,,,,,,,,,,
CalCOFI,2007SR,021,22,2007_021d,17-Jul-2020 11:51:54,17-Jul-2020 03:51:54,31.41738,-121.98884,090.0 090.0,090.0,090.0,31.000,31.218,,17.5524,,17.5533,,17.5529,33.4244,,33.4246,33.4252,,33.4268,33.4257,5.3843,,5.6084,5.5757,4.1080,,5.8658,4.5877,5.0817,234.788,244.6071,221.2017,179.132,408.7131,180.8360,201.0189,0.0408,,0.0552,0.0972,,,,,24.1753,,24.1756,,0.6766,84.4381,,8.142,,1.9043E+00,,1.0000E-12,,17.5472,17.5481,0.1477,,98.460,75.122,,,,,,,,,,,,
CalCOFI,2007SR,021,22,2007_021d,17-Jul-2020 11:51:56,17-Jul-2020 03:51:56,31.41738,-121.98884,090.0 090.0,090.0,090.0,32.000,32.225,,17.5445,,17.5452,,17.5449,33.4248,,33.4250,33.4256,,33.4272,33.4261,5.3841,,5.6081,5.5755,4.1091,,5.8685,4.5902,5.0829,234.776,244.5946,221.1909,179.182,408.6838,180.9361,201.0635,0.0415,,0.0634,0.1019,,,,,24.1775,,24.1780,,0.6744,84.4843,,8.142,,1.9043E+00,,1.0000E-12,,17.5392,17.5398,0.1515,,98.441,75.132,,,,,,,,,,,,
CalCOFI,2007SR,021,22,2007_021d,17-Jul-2020 11:51:57,17-Jul-2020 03:51:57,31.41738,-121.98884,090.0 090.0,090.0,090.0,33.000,33.233,,17.5396,,17.5402,,17.5399,33.4247,,33.4249,33.4257,,33.4273,33.4261,5.3857,,5.6098,5.5771,4.1101,,5.8708,4.5924,5.0848,234.848,244.6697,221.2554,179.222,408.8599,181.0163,201.1359,0.0420,,0.0693,0.1053,,,,,24.1786,,24.1792,,0.6741,84.4895,,8.141,,1.9043E+00,,1.0000E-12,,17.5341,17.5347,0.1553,,98.462,75.142,,,,,,,,,,,,
CalCOFI,2007SR,021,22,2007_021d,17-Jul-2020 11:52:01,17-Jul-2020 03:52:01,31.41738,-121.98884,090.0 090.0,090.0,090.0,34.000,34.240,,17.5417,,17.5417,,17.5417,33.4249,,33.4251,33.4258,,33.4274,33.4263,5.3767,,5.6004,5.5678,4.1105,,5.8718,4.5933,5.0806,234.454,244.2584,220.9023,179.239,407.8962,181.0503,200.9763,0.0423,,0.0728,0.1074,,,,,24.1783,,24.1790,,0.6745,84.4814,,8.141,,1.9043E+00,,1.0000E-12,,17.5360,17.5361,0.1590,,98.301,75.151,,,,,,,,,,,,
CalCOFI,2007SR,021,22,2007_021d,17-Jul-2020 11:52:03,17-Jul-2020 03:52:03,31.41738,-121.98884,090.0 090.0,090.0,090.0,35.000,35.247,,17.5294,,17.5299,,17.5297,33.4246,,33.4248,33.4254,,33.4270,33.4259,5.3734,,5.5970,5.5643,4.1119,,5.8751,4.5965,5.0804,234.312,244.1102,220.7751,179.304,407.5489,181.1805,200.9778,0.0419,,0.0681,0.1047,,,,,24.1811,,24.1815,,0.6775,84.4199,,8.141,,1.9043E+00,,1.0000E-12,,17.5235,17.5241,0.1628,,98.218,75.161,,,,,,,,,,,,
CalCOFI,2007SR,021,22,2007_021d,17-Jul-2020 11:52:04,17-Jul-2020 03:52:04,31.41738,-121.98884,090.0 090.0,090.0,090.0,36.000,36.254,,17.5268,,17.5270,,17.5269,33.4245,,33.4247,33.4253,,33.4269,33.4258,5.3837,,5.6077,5.5750,4.1127,,5.8770,4.5983,5.0867,234.760,244.5779,221.1766,179.336,408.6446,181.2446,201.2106,0.0427,,0.0775,0.1100,,,,,24.1816,,24.1822,,0.6763,84.4452,,8.141,,1.9043E+00,,1.0000E-12,,17.5208,17.5210,0.1666,,98.401,75.171,,,,,,,,,,,,
CalCOFI,2007SR,021,22,2007_021d,17-Jul-2020 11:52:05,17-Jul-2020 03:52:05,31.41738,-121.98884,090.0 090.0,090.0,090.0,37.000,37.261,,17.4938,,17.4946,,17.4942,33.4222,,33.4224,33.4229,,33.4245,33.4235,5.3927,,5.6171,5.5844,4.1160,,5.8849,4.6057,5.0951,235.152,244.9871,221.5279,179.477,409.6034,181.5271,201.5275,0.0466,,0.1233,0.1353,,,,,24.1878,,24.1882,,0.6785,84.3990,,8.141,,1.9043E+00,,1.0000E-12,,17.4876,17.4884,0.1703,,98.502,75.182,,,,,,,,,,,,
CalCOFI,2007SR,021,22,2007_021d,17-Jul-2020 11:52:08,17-Jul-2020 03:52:08,31.41738,-121.98884,090.0 090.0,090.0,090.0,38.000,38.268,,17.4671,,17.4570,,17.4621,33.4190,,33.4192,33.4216,,33.4232,33.4212,5.4034,,5.6283,5.5955,4.1196,,5.8935,4.6138,5.1047,235.616,245.4714,221.9437,179.635,410.7383,181.8436,201.8937,0.0496,,0.1585,0.1538,,,,,24.1918,,24.1962,,0.6807,84.3525,,8.141,,1.9043E+00,,1.0000E-12,,17.4607,17.4506,0.1741,,98.645,75.194,,,,,,,,,,,,
CalCOFI,2007SR,021,22,2007_021d,17-Jul-2020 11:52:10,17-Jul-2020 03:52:10,31.41738,-121.98884,090.0 090.0,090.0,090.0,39.000,39.275,,17.4016,,17.4020,,17.4018,33.4174,,33.4176,33.4182,,33.4198,33.4187,5.4135,,5.6389,5.6060,4.1255,,5.9076,4.6271,5.1166,236.053,245.9276,222.3354,179.891,411.8071,182.3564,202.3459,0.0497,,0.1597,0.1544,,,,,24.2063,,24.2068,,0.6809,84.3474,,8.141,,1.9043E+00,,1.0000E-12,,17.3951,17.3955,0.1778,,98.704,75.222,,,,,,,,,,,,
CalCOFI,2007SR,021,22,2007_021d,17-Jul-2020 11:52:12,17-Jul-2020 03:52:12,31.41738,-121.98884,090.0 090.0,090.0,090.0,40.000,40.283,,17.3730,,17.3758,,17.3744,33.4167,,33.4169,33.4170,,33.4186,33.4178,5.4217,,5.6474,5.6146,4.1319,,5.9229,4.6416,5.1281,236.411,246.3013,222.6563,180.169,412.6827,182.9133,202.7848,0.0502,,0.1656,0.1574,,,,,24.2126,,24.2122,,0.6818,84.3283,,8.142,,1.9043E+00,,1.0000E-12,,17.3664,17.3692,0.1816,,98.800,75.300,,,,,,,,,,,,
CalCOFI,2007SR,021,22,2007_021d,17-Jul-2020 11:52:14,17-Jul-2020 03:52:14,31.41738,-121.98884,090.0 090.0,090.0,090.0,41.000,41.290,,17.3280,,17.3316,,17.3298,33.4149,,33.4151,33.4156,,33.4172,33.4162,5.4320,,5.6582,5.6253,4.1355,,5.9315,4.6497,5.1375,236.857,246.7669,223.0560,180.323,413.7736,183.2218,203.1389,0.0515,,0.1808,0.1650,,,,,24.2220,,24.2216,,0.6814,84.3376,,8.142,,1.9043E+00,,1.0000E-12,,17.3211,17.3248,0.1853,,98.901,75.300,41,17.321,33.4063,,246.58,0.196,0.056,,,,,1.3
CalCOFI,2007SR,021,22,2007_021d,17-Jul-2020 11:52:16,17-Jul-2020 03:52:16,31.41738,-121.98884,090.0 090.0,090.0,090.0,42.000,42.297,,17.2604,,17.2652,,17.2628,33.4133,,33.4135,33.4135,,33.4151,33.4143,5.4482,,5.6751,5.6421,4.1418,,5.9465,4.6639,5.1530,237.557,247.4977,223.6833,180.594,415.4857,183.7647,203.7240,0.0527,,0.1949,0.1719,,,,,24.2368,,24.2359,,0.6812,84.3430,,8.142,,1.9043E+00,,1.0000E-12,,17.2535,17.2583,0.1890,,99.065,75.317,,,,,,,,,,,,
CalCOFI,2007SR,021,22,2007_021d,17-Jul-2020 11:52:18,17-Jul-2020 03:52:18,31.41738,-121.98884,090.0 090.0,090.0,090.0,43.000,43.304,,17.1708,,17.1731,,17.1720,33.4086,,33.4088,33.4094,,33.4110,33.4099,5.4831,,5.7116,5.6784,4.1539,,5.9754,4.6912,5.1848,239.079,249.0865,225.0474,181.122,419.2083,184.8224,204.9349,0.0543,,0.2137,0.1809,,,,,24.2545,,24.2546,,0.6820,84.3252,,8.143,,1.9043E+00,,1.0000E-12,,17.1637,17.1660,0.1928,,99.527,75.404,,,,,,,,,,,,
CalCOFI,2007SR,021,22,2007_021d,17-Jul-2020 11:52:20,17-Jul-2020 03:52:20,31.41738,-121.98884,090.0 090.0,090.0,090.0,44.000,44.311,,17.0558,,17.0584,,17.0571,33.4080,,33.4082,33.4084,,33.4100,33.4091,5.5035,,5.7329,5.6997,4.1641,,5.9998,4.7142,5.2070,239.961,250.0072,225.8379,181.558,421.3655,185.6958,205.7669,0.0557,,0.2302,0.1886,,,,,24.2812,,24.2809,,0.6850,84.2606,,8.143,,1.9043E+00,,1.0000E-12,,17.0485,17.0511,0.1964,,99.675,75.420,,,,,,,,,,,,
CalCOFI,2007SR,021,22,2007_021d,17-Jul-2020 11:52:22,17-Jul-2020 03:52:22,31.41738,-121.98884,090.0 090.0,090.0,090.0,45.000,45.319,,16.9994,,17.0014,,17.0004,33.4108,,33.4110,33.4113,,33.4129,33.4120,5.5063,,5.7358,5.7026,4.1722,,6.0191,4.7324,5.2175,240.078,250.1293,225.9428,181.911,421.6517,186.4029,206.1729,0.0565,,0.2396,0.1929,,,,,24.2966,,24.2966,,0.6859,84.2409,,8.143,,1.9043E+00,,1.0000E-12,,16.9921,16.9940,0.2001,,99.619,75.486,,,,,,,,,,,,
CalCOFI,2007SR,021,22,2007_021d,17-Jul-2020 11:52:24,17-Jul-2020 03:52:24,31.41738,-121.98884,090.0 090.0,090.0,090.0,46.000,46.326,,16.9366,,16.9395,,16.9381,33.4113,,33.4115,33.4120,,33.4136,33.4126,5.5254,,5.7558,5.7224,4.1877,,6.0561,4.7674,5.2449,240.907,250.9947,226.6857,182.582,423.6793,187.7471,207.2164,0.0585,,0.2631,0.2034,,,,,24.3118,,24.3117,,0.6879,84.2011,,8.143,,1.9043E+00,,1.0000E-12,,16.9290,16.9320,0.2038,,99.843,75.676,,,,,,,,,,,,
CalCOFI,2007SR,021,22,2007_021d,17-Jul-2020 11:52:26,17-Jul-2020 03:52:26,31.41738,-121.98884,090.0 090.0,090.0,090.0,47.000,47.333,,16.7721,,16.7798,,16.7760,33.4040,,33.4042,33.4025,,33.4041,33.4042,5.5690,,5.8013,5.7678,4.2070,,6.1022,4.8109,5.2894,242.803,252.9740,228.3850,183.420,428.3167,189.4258,208.9054,0.0601,,0.2819,0.2115,,,,,24.3447,,24.3418,,0.6894,84.1694,,8.145,,1.9043E+00,,1.0000E-12,,16.7645,16.7722,0.2074,,100.308,75.786,,,,,,,,,,,,
CalCOFI,2007SR,021,22,2007_021d,17-Jul-2020 11:52:28,17-Jul-2020 03:52:28,31.41738,-121.98884,090.0 090.0,090.0,090.0,48.000,48.340,,16.4499,,16.4571,,16.4535,33.4037,,33.4039,33.4027,,33.4043,33.4041,5.6406,,5.8762,5.8423,4.2382,,6.1767,4.8812,5.3618,245.903,256.2100,231.1634,184.766,435.8988,192.1221,211.6428,0.0612,,0.2948,0.2170,,,,,24.4191,,24.4166,,0.6900,84.1566,,8.146,,1.9043E+00,,1.0000E-12,,16.4422,16.4494,0.2110,,100.962,75.871,,,,,,,,,,,,
CalCOFI,2007SR,021,22,2007_021d,17-Jul-2020 11:52:30,17-Jul-2020 03:52:30,31.41738,-121.98884,090.0 090.0,090.0,090.0,49.000,49.347,,16.2518,,16.2555,,16.2537,33.4042,,33.4044,33.4040,,33.4056,33.4050,5.6995,,5.9377,5.9035,4.2595,,6.2275,4.9292,5.4164,248.462,258.8814,233.4568,185.686,442.1578,193.9650,213.7109,0.0608,,0.2901,0.2150,,,,,24.4649,,24.4639,,0.6868,84.2223,,8.147,,1.9043E+00,,1.0000E-12,,16.2440,16.2477,0.2145,,101.625,75.954,,,,,,,,,,,,
CalCOFI,2007SR,021,22,2007_021d,17-Jul-2020 11:52:32,17-Jul-2020 03:52:32,31.41738,-121.98884,090.0 090.0,090.0,090.0,50.000,50.355,,16.1260,,16.1236,,16.1248,33.3953,,33.3955,33.3960,,33.3976,33.3966,5.7063,,5.9448,5.9106,4.2719,,6.2571,4.9572,5.4339,248.752,259.1841,233.7167,186.223,442.8671,195.0407,214.3787,0.0623,,0.3078,0.2223,,,,,24.4868,,24.4878,,0.6859,84.2421,,8.147,,1.9043E+00,,1.0000E-12,,16.1181,16.1157,0.2180,,101.491,75.976,50,16.374,33.3997,,256.68,0.264,0.088,,,,,1.52